Location: Dammartin
(48.9032°N, 1.6195°E)
Time: 10:24:26
(UTC+00:00)

SO-50 - Pass Details

Date: 06 December 2023
Orbit: 607 x 661 km, 64.6° (Epoch: 21 February)

Event Time Altitude Azimuth Distance (km) Brightness Sun altitude
Exits shadow 05:17:54 21° 349° (N) 1,461 ? -21.0°
Drops below altitude 10° 05:20:32 10° 22° (NNE) 2,045 ? -20.5°
Sets 05:23:15 0° 37° (NE) 2,945 ? -20.1°
